This is the latest recevied weather packets stored in our database for station/object KD4EED. If no packets are shown the sender has not sent any weather packets the latest 10 day(s).
| Time | Temp. | Humidity | Pressure | Rain* | Wind** | Luminosity | Snow |
|---|---|---|---|---|---|---|---|
| 1787957873 | 33.89° C | 49% | 1007.7 hPa | - | - | 397 W/m² | - |
| 1787957566 | 33.89° C | 51% | 1007.7 hPa | - | - | 398 W/m² | - |
| 1787957262 | 33.33° C | 50% | 1007.9 hPa | - | - | 420 W/m² | - |
| 1787956962 | 33.33° C | 50% | 1007.8 hPa | - | - | 350 W/m² | - |
| 1787956661 | 33.33° C | 49% | 1007.8 hPa | - | - | 368 W/m² | - |
| 1787956356 | 33.89° C | 49% | 1007.8 hPa | - | - | 370 W/m² | - |
| 1787956052 | 33.89° C | 48% | 1008.1 hPa | - | - | 410 W/m² | - |
| 1787955747 | 33.89° C | 48% | 1008.2 hPa | - | - | 354 W/m² | - |
| 1787955444 | 33.33° C | 49% | 1008.2 hPa | - | - | 470 W/m² | - |
| 1787955141 | 33.33° C | 49% | 1008.3 hPa | - | - | 470 W/m² | - |
| 1787954838 | 33.33° C | 49% | 1008.4 hPa | - | - | 416 W/m² | - |
| 1787954533 | 33.33° C | 47% | 1008.5 hPa | - | - | 521 W/m² | - |
| 1787954234 | 33.33° C | 49% | 1008.7 hPa | - | - | 548 W/m² | - |
| 1787953933 | 33.33° C | 49% | 1008.6 hPa | - | - | 548 W/m² | - |
| 1787953632 | 33.33° C | 48% | 1008.6 hPa | - | - | 504 W/m² | - |
| 1787953332 | 33.89° C | 46% | 1008.8 hPa | - | - | 492 W/m² | - |
| 1787953030 | 34.44° C | 47% | 1008.8 hPa | - | - | 492 W/m² | - |
| 1787952730 | 33.89° C | 49% | 1009 hPa | - | - | 572 W/m² | - |
| 1787952425 | 33.89° C | 49% | 1009 hPa | - | - | 572 W/m² | - |
| 1787952121 | 33.89° C | 49% | 1009.1 hPa | - | - | 572 W/m² | - |
| 1787951820 | 33.89° C | 49% | 1009.1 hPa | - | - | 572 W/m² | - |
| 1787951515 | 33.89° C | 49% | 1008.9 hPa | - | - | 579 W/m² | - |
| 1787951212 | 33.89° C | 48% | 1008.8 hPa | - | - | 517 W/m² | - |
| 1787950908 | 33.89° C | 49% | 1008.9 hPa | - | - | 325 W/m² | - |
| 1787950603 | 33.33° C | 49% | 1009 hPa | - | - | 594 W/m² | - |
* Rain since midnight (hover to see other rain measurements)
** Current wind speed in m/s (hover to see current wind gust speed)